N3PL Weather Reports


time (UTC)temp
C
wind
direction
speed
KPH
gust
KPH
rain 1hr
cm
rain 24hr
cm
rain mn
cm
humidity
%
barometer
mb
20260507000605 18 359 0.0 0.0 0.00 0.00 0.00 78 1003.4
20260507000008 18 357 0.0 0.0 0.00 0.00 0.00 78 1003.4
20260506235556 18 359 0.0 0.0 0.00 0.00 0.00 77 1003.4
20260506235059 18 359 0.0 0.0 0.00 0.00 0.00 77 1003.4
20260506234603 18 357 0.0 0.0 0.00 0.00 0.00 77 1003.4
20260506234003 18 357 0.0 0.0 0.00 0.00 0.00 77 1003.4
20260506233506 18 359 0.0 0.0 0.00 0.00 0.00 77 1003.4
20260506233009 18 359 0.0 0.0 0.00 0.00 0.00 77 1003.4
20260506232600 18 359 0.0 0.0 0.00 0.00 0.00 77 1003.2
20260506232103 18 359 0.0 0.0 0.00 0.00 0.00 76 1003.2
20260506231607 18 359 0.0 0.0 0.00 0.00 0.00 76 1003.2
20260506231001 19 357 0.0 0.0 0.00 0.00 0.00 76 1003.1
20260506230555 19 359 0.0 0.0 0.00 0.00 0.00 75 1003.1
20260506230059 19 359 0.0 0.0 0.00 0.00 0.00 75 1003.1
20260506225603 19 357 0.0 0.0 0.00 0.00 0.00 75 1003.2
20260506225107 19 359 0.0 0.0 0.00 0.00 0.00 75 1003.2
20260506224605 19 359 0.0 0.0 0.00 0.00 0.00 75 1003.2
20260506224057 19 359 0.0 0.0 0.00 0.00 0.00 75 1003.2
20260506223600 19 257 0.0 0.0 0.00 0.00 0.00 74 1003.2
20260506223102 19 257 0.0 0.0 0.00 0.00 0.00 74 1003.2
20260506222509 19 254 0.0 0.0 0.00 0.00 0.00 74 1003.2
20260506222010 19 254 0.0 0.0 0.00 0.00 0.00 74 1003.2
20260506221603 19 254 0.0 0.0 0.00 0.00 0.00 74 1003.2
20260506221107 19 254 0.0 0.0 0.00 0.00 0.00 74 1002.9
20260506220503 19 254 0.0 0.0 0.00 0.00 0.00 73 1002.9
20260506220057 19 254 0.0 0.0 0.00 0.00 0.00 73 1002.9
20260506215559 19 254 0.0 0.0 0.00 0.00 0.00 73 1003.0
20260506215101 19 254 0.0 0.0 0.00 0.00 0.00 73 1003.0
20260506214618 19 254 0.0 0.0 0.00 0.00 0.00 73 1003.0
20260506214003 19 254 0.0 0.0 0.00 0.00 0.00 74 1002.8
20260506213504 19 254 0.0 0.0 0.00 0.00 0.00 73 1002.8
20260506213011 19 254 0.0 0.0 0.00 0.00 0.00 73 1002.8
20260506212600 19 254 0.0 0.0 0.00 0.00 0.00 73 1002.9
20260506212104 19 254 0.0 0.0 0.00 0.00 0.00 73 1002.9
20260506211606 19 254 0.0 0.0 0.00 0.00 0.00 73 1002.9
20260506211003 20 254 0.0 0.0 0.00 0.00 0.00 73 1002.8
20260506210506 20 247 0.0 0.0 0.00 0.00 0.00 73 1002.8
20260506210059 20 247 0.0 0.0 0.00 0.00 0.00 73 1002.8
20260506205603 19 247 0.0 0.0 0.00 0.00 0.00 73 1002.7
20260506205107 19 247 0.0 0.0 0.00 0.00 0.00 75 1002.7
20260506204503 18 247 0.0 0.0 0.00 0.00 0.00 76 1002.7
20260506204057 18 247 0.0 0.0 0.00 0.00 0.00 76 1002.7
20260506203559 18 247 0.0 0.0 0.00 0.00 0.00 77 1002.7
20260506203102 18 247 0.0 0.0 0.00 0.00 0.00 78 1002.7
20260506202605 18 247 0.0 0.0 0.00 0.00 0.00 78 1002.7
20260506202003 18 247 0.0 0.0 0.00 0.00 0.00 79 1002.7
20260506201507 18 247 0.0 0.0 0.00 0.00 0.00 79 1002.7
20260506201007 18 247 0.0 0.0 0.00 0.00 0.00 80 1002.7
20260506200515 18 223 0.0 0.0 0.00 0.00 0.00 80 1002.7
20260506200104 18 265 0.0 0.0 0.00 0.00 0.00 81 1002.7
20260506195502 17 38 0.0 0.0 0.00 0.00 0.00 82 1003.0
20260506195004 17 199 0.0 0.0 0.00 0.00 0.00 84 1003.0
20260506194607 17 199 0.0 0.0 0.00 0.00 0.00 83 1003.0
20260506194105 17 213 0.0 0.0 0.00 0.00 0.00 84 1003.2
20260506193505 17 213 0.0 0.0 0.00 0.00 0.00 84 1003.2
20260506193100 17 198 0.0 0.0 0.00 0.00 0.00 84 1003.2
20260506192600 17 198 0.0 0.0 0.00 0.00 0.00 85 1003.3
20260506192002 17 198 0.0 0.0 0.00 0.00 0.00 85 1003.3
20260506191506 17 172 0.0 0.0 0.00 0.00 0.00 85 1003.3
20260506191058 16 189 0.0 0.0 0.00 0.00 0.00 86 1003.4
20260506190606 16 191 0.0 0.0 0.00 0.00 0.00 86 1003.4
20260506190106 16 175 0.0 0.0 0.00 0.00 0.00 86 1003.4
20260506185553 16 175 0.0 0.0 0.00 0.00 0.00 86 1003.5
20260506185101 16 175 0.0 0.0 0.00 0.00 0.00 86 1003.5
20260506184607 16 171 0.0 0.0 0.00 0.00 0.00 86 1003.5
20260506184005 16 174 0.0 0.0 0.00 0.00 0.00 87 1003.6
20260506183556 16 168 0.0 0.0 0.00 0.00 0.00 87 1003.6
20260506183106 16 168 0.0 0.0 0.00 0.00 0.00 88 1003.6
20260506182601 16 168 0.0 0.0 0.00 0.00 0.00 88 1003.7
20260506182103 16 196 0.0 0.0 0.00 0.00 0.00 88 1003.7
20260506181607 16 179 0.0 0.0 0.00 0.00 0.00 88 1003.7
20260506181004 16 179 0.0 0.0 0.00 0.00 0.00 88 1003.8
20260506180507 16 179 0.0 0.0 0.00 0.00 0.00 89 1003.8
20260506175603 16 184 0.0 0.0 0.00 0.00 0.00 90 1003.9
20260506175106 16 184 0.0 0.0 0.00 0.00 0.00 90 1003.9
20260506174502 16 184 0.0 0.0 0.00 0.00 0.00 90 1003.9
20260506174056 16 184 0.0 0.0 0.00 0.00 0.00 91 1003.9
20260506173558 16 189 0.0 0.0 0.00 0.00 0.00 91 1003.9
20260506173103 16 172 0.0 0.0 0.00 0.00 0.00 91 1003.9
20260506172501 16 172 0.0 0.0 0.00 0.00 0.00 91 1003.9
20260506172008 16 172 0.0 0.0 0.00 0.00 0.00 91 1003.9
20260506171512 16 154 0.0 0.0 0.00 0.00 0.00 91 1003.9
20260506171011 16 195 0.0 0.0 0.00 0.00 0.00 91 1004.1
20260506170605 16 195 0.0 0.0 0.00 0.00 0.00 92 1004.1
20260506170055 16 195 0.0 0.0 0.00 0.00 0.00 91 1004.1
20260506165557 16 195 0.0 0.0 0.00 0.00 0.00 92 1004.2
20260506165059 16 195 0.0 0.0 0.00 0.00 0.00 91 1004.2
20260506164557 16 195 0.0 0.0 0.00 0.00 0.00 91 1004.2
20260506164100 16 195 0.0 0.0 0.00 0.00 0.00 91 1004.3
20260506163559 16 195 0.0 0.0 0.00 0.00 0.00 92 1004.3
20260506163107 16 195 0.0 0.0 0.00 0.00 0.00 91 1004.3
20260506162549 16 195 0.0 0.0 0.00 0.00 0.00 91 1004.3
20260506162036 16 179 0.0 0.0 0.00 0.00 0.00 91 1004.3
20260506161544 16 178 0.0 0.0 0.00 0.00 0.00 91 1004.3
20260506161050 15 178 0.0 0.0 0.00 0.00 0.00 90 1004.7
20260506160555 15 178 0.0 0.0 0.00 0.00 0.00 89 1004.7
20260506160059 15 176 0.0 0.0 0.00 0.00 0.00 88 1004.7
20260506155601 15 158 0.0 0.0 0.00 0.00 0.00 88 1005.5
20260506155104 16 158 0.0 0.0 0.00 0.00 0.00 87 1005.5
20260506154616 16 160 0.0 0.0 0.00 0.00 0.00 86 1005.5
20260506154003 16 186 0.0 0.0 0.00 0.00 0.00 86 1005.5
20260506153505 16 186 0.0 0.0 0.00 0.00 0.00 85 1005.5
20260506153058 16 181 0.0 0.0 0.00 0.00 0.00 85 1005.5
20260506152600 16 181 0.0 0.0 0.00 0.00 0.00 84 1005.2
20260506152104 16 181 0.0 0.0 0.00 0.00 0.00 84 1005.2
20260506151504 16 181 0.0 0.0 0.00 0.00 0.00 83 1005.2
20260506151057 16 181 0.0 0.0 0.00 0.00 0.00 82 1005.0
20260506150600 16 181 0.0 0.0 0.00 0.00 0.00 81 1005.0
20260506150104 16 181 0.0 0.0 0.00 0.00 0.00 79 1005.0
20260506145501 16 179 0.0 0.0 0.00 0.00 0.00 78 1005.0
20260506145057 17 179 0.0 0.0 0.00 0.00 0.00 76 1005.0
20260506144603 17 171 0.0 0.0 0.00 0.00 0.00 75 1005.0
20260506144100 17 171 0.0 0.0 0.00 0.00 0.00 74 1005.3
20260506143605 17 37 0.0 0.0 0.00 0.00 0.00 73 1005.3
20260506143106 17 155 0.0 0.0 0.00 0.00 0.00 73 1005.3
20260506142502 17 138 0.0 0.0 0.00 0.00 0.00 72 1005.4
20260506142055 17 193 0.0 0.0 0.00 0.00 0.00 72 1005.4
20260506141604 17 193 0.0 0.0 0.00 0.00 0.00 71 1005.4
20260506141102 18 189 0.0 0.0 0.00 0.00 0.00 69 1005.1
20260506140606 18 189 0.0 0.0 0.00 0.00 0.00 68 1005.1
20260506140004 18 171 0.0 0.0 0.00 0.00 0.00 67 1005.1
20260506135557 18 178 0.0 0.0 0.00 0.00 0.00 66 1004.9
20260506135101 18 176 0.0 0.0 0.00 0.00 0.00 65 1004.9
20260506134604 18 179 0.0 0.0 0.00 0.00 0.00 65 1004.9
20260506134004 18 174 0.0 0.0 0.00 0.00 0.00 65 1004.9
20260506133556 18 185 0.0 0.0 0.00 0.00 0.00 66 1004.9
20260506133104 18 192 0.0 0.0 0.00 0.00 0.00 66 1004.9
20260506132605 18 185 0.0 0.0 0.00 0.00 0.00 66 1005.0
20260506132105 18 164 0.0 0.0 0.00 0.00 0.00 67 1005.0
20260506131553 18 175 0.0 0.0 0.00 0.00 0.00 68 1005.0
20260506131101 18 193 0.0 0.0 0.00 0.00 0.00 68 1005.1
20260506130604 18 186 0.0 0.0 0.00 0.00 0.00 68 1005.1
20260506130005 18 185 0.0 0.0 0.00 0.00 0.00 68 1005.1
20260506125506 18 178 0.0 0.0 0.00 0.00 0.00 68 1005.3
20260506125059 18 189 0.0 0.0 0.00 0.00 0.00 68 1005.3
20260506124606 18 198 0.0 0.0 0.00 0.00 0.00 68 1005.3
20260506124002 18 176 0.0 0.0 0.00 0.00 0.00 68 1005.2
20260506123504 18 175 0.0 0.0 0.00 0.00 0.00 68 1005.2
20260506123058 18 144 0.0 0.0 0.00 0.00 0.00 68 1005.2
20260506122550 18 174 0.0 0.0 0.00 0.00 0.00 68 1005.0
20260506122052 18 136 0.0 0.0 0.00 0.00 0.00 68 1005.0
20260506121555 18 178 0.0 0.0 0.00 0.00 0.00 68 1005.0
20260506121042 18 179 0.0 0.0 0.00 0.00 0.00 69 1004.8
20260506120546 18 179 0.0 0.0 0.00 0.00 0.00 69 1004.8
20260506120049 18 120 0.0 0.0 0.00 0.00 0.00 69 1004.8
20260506115550 18 199 0.0 0.0 0.00 0.00 0.00 69 1004.9
20260506115056 18 200 0.0 0.0 0.00 0.00 0.00 69 1004.9
20260506114604 18 150 0.0 0.0 0.00 0.00 0.00 69 1004.9
20260506114102 18 171 0.0 0.0 0.00 0.00 0.00 69 1004.7
20260506113549 17 167 0.0 0.0 0.00 0.00 0.00 69 1004.7
20260506113058 17 179 0.0 0.0 0.00 0.00 0.00 69 1004.7
20260506112555 17 189 0.0 0.0 0.00 0.00 0.00 69 1004.7
20260506112103 17 189 0.0 0.0 0.00 0.00 0.00 70 1004.7
20260506111504 17 189 0.0 0.0 0.00 0.00 0.00 70 1004.7
20260506111007 17 189 0.0 0.0 0.00 0.00 0.00 70 1004.7
20260506110606 17 185 0.0 0.0 0.00 0.00 0.00 70 1004.7
20260506110003 17 178 0.0 0.0 0.00 0.00 0.00 70 1004.7
20260506105507 17 179 0.0 0.0 0.00 0.00 0.00 70 1004.7
20260506105102 17 178 0.0 0.0 0.00 0.00 0.00 70 1004.7
20260506104603 17 165 0.0 0.0 0.00 0.00 0.00 70 1004.7
20260506104105 17 165 0.0 0.0 0.00 0.00 0.00 70 1004.6
20260506103502 17 186 0.0 0.0 0.00 0.00 0.00 70 1004.6
20260506103100 17 178 0.0 0.0 0.00 0.00 0.00 71 1004.6
20260506102559 17 169 0.0 0.0 0.00 0.00 0.00 71 1004.6
20260506102101 17 169 0.0 0.0 0.00 0.00 0.00 71 1004.6
20260506101604 17 168 0.0 0.0 0.00 0.00 0.00 70 1004.6
20260506101003 17 165 0.0 0.0 0.00 0.00 0.00 70 1004.5
20260506100504 17 130 0.0 0.0 0.00 0.00 0.00 70 1004.5
20260506100010 17 130 0.0 0.0 0.00 0.00 0.00 70 1004.5
20260506095600 17 130 0.0 0.0 0.00 0.00 0.00 69 1004.5
20260506095104 17 191 0.0 0.0 0.00 0.00 0.00 69 1004.5
20260506094504 17 167 0.0 0.0 0.00 0.00 0.00 69 1004.5
20260506094006 18 172 0.0 0.0 0.00 0.00 0.00 69 1004.6
20260506093606 18 169 0.0 0.0 0.00 0.00 0.00 69 1004.6
20260506093004 18 168 0.0 0.0 0.00 0.00 0.00 68 1004.6
20260506092509 18 176 0.0 0.0 0.00 0.00 0.00 68 1004.6
20260506092011 18 178 0.0 0.0 0.00 0.00 0.00 68 1004.6
20260506091605 18 169 0.0 0.0 0.00 0.00 0.00 68 1004.6
20260506091002 18 155 0.0 0.0 0.00 0.00 0.00 67 1004.6
20260506090505 18 123 0.0 0.0 0.00 0.00 0.00 67 1004.6
20260506085504 18 185 0.0 0.0 0.00 0.00 0.00 66 1004.7
20260506085008 18 150 0.0 0.0 0.00 0.00 0.00 66 1004.7
20260506084608 18 172 0.0 0.0 0.00 0.00 0.00 65 1004.7
20260506084003 18 148 0.0 0.0 0.00 0.00 0.00 65 1004.5
20260506083506 18 148 0.0 0.0 0.00 0.00 0.00 65 1004.5
20260506083100 18 175 0.0 0.0 0.00 0.00 0.00 65 1004.5
20260506082505 18 175 0.0 0.0 0.00 0.00 0.00 65 1004.6
20260506082007 18 191 0.0 0.0 0.00 0.00 0.00 65 1004.6
20260506081602 18 168 0.0 0.0 0.00 0.00 0.00 65 1004.6
20260506081106 18 171 0.0 0.0 0.00 0.00 0.00 65 1004.7
20260506080503 18 143 0.0 0.0 0.00 0.00 0.00 66 1004.7
20260506073101 18 176 0.0 0.0 0.00 0.00 0.00 67 1004.9
20260506072604 18 176 0.0 0.0 0.00 0.00 0.00 67 1004.9
20260506072003 18 176 0.0 0.0 0.00 0.00 0.00 66 1004.9
20260506071555 18 176 0.0 0.0 0.00 0.00 0.00 66 1004.9
20260506071059 18 176 0.0 0.0 0.00 0.00 0.00 66 1005.0
20260506070504 18 176 0.0 0.0 0.00 0.00 0.00 66 1005.0
20260506062003 19 182 0.0 0.0 0.00 0.00 0.00 65 1005.4
20260506061506 19 182 0.0 0.0 0.00 0.00 0.00 65 1005.4
20260506061100 19 176 0.0 0.0 0.00 0.00 0.00 65 1005.4
20260506060602 19 176 0.0 0.0 0.00 0.00 0.00 65 1005.4
20260506060111 19 176 0.0 0.0 0.00 0.00 0.00 64 1005.4
20260506051008 20 176 0.0 0.0 0.00 0.00 0.00 58 1005.8
20260506050515 20 179 0.0 0.0 0.00 0.00 0.00 58 1005.8
20260506045051 20 150 0.0 0.0 0.00 0.00 0.00 56 1005.9
20260506044613 20 157 0.0 0.0 0.00 0.00 0.00 56 1005.9
20260506044053 20 155 0.0 0.0 0.00 0.00 0.00 55 1005.9
20260506043558 20 161 0.0 0.0 0.00 0.00 0.00 55 1005.9
20260506043102 20 161 0.0 0.0 0.00 0.00 0.00 55 1005.9
20260506042605 20 169 0.0 0.0 0.00 0.00 0.00 54 1005.9
20260506042053 20 169 0.0 0.0 0.00 0.00 0.00 54 1005.9
20260506041555 20 169 0.0 0.0 0.00 0.00 0.00 54 1005.9
20260506041057 20 169 0.0 0.0 0.00 0.00 0.00 54 1005.9
20260506040604 20 169 0.0 0.0 0.00 0.00 0.00 53 1005.9
20260506040001 20 169 0.0 0.0 0.00 0.00 0.00 53 1005.9
20260506035503 20 169 0.0 0.0 0.00 0.00 0.00 53 1005.8
20260506035057 20 169 0.0 0.0 0.00 0.00 0.00 53 1005.8
20260506034604 20 169 0.0 0.0 0.00 0.00 0.00 52 1005.8
20260506034001 20 169 0.0 0.0 0.00 0.00 0.00 52 1005.7
20260506033503 20 169 0.0 0.0 0.00 0.00 0.00 52 1005.7
20260506033005 20 169 0.0 0.0 0.00 0.00 0.00 52 1005.7
20260506032507 20 169 0.0 0.0 0.00 0.00 0.00 52 1005.7
20260506032010 20 169 0.0 0.0 0.00 0.00 0.00 51 1005.7
20260506031606 20 169 0.0 0.0 0.00 0.00 0.00 51 1005.7
20260506031007 20 169 0.0 0.0 0.00 0.00 0.00 50 1005.9
20260506030510 20 175 0.0 0.0 0.00 0.00 0.00 51 1005.9
20260506025502 21 175 0.0 0.0 0.00 0.00 0.00 50 1005.9
20260506025006 21 175 0.0 0.0 0.00 0.00 0.00 50 1005.9
20260506024602 21 175 0.0 0.0 0.00 0.00 0.00 50 1005.9
20260506024104 21 175 0.0 0.0 0.00 0.00 0.00 49 1005.9
20260506023607 21 175 0.0 0.0 0.00 0.00 0.00 49 1005.9
20260506023004 21 160 0.0 0.0 0.00 0.00 0.00 49 1005.9
20260506022557 21 157 0.0 0.0 0.00 0.00 0.00 49 1005.9
20260506022059 21 157 0.0 0.0 0.00 0.00 0.00 48 1005.9
20260506021619 21 157 0.0 0.0 0.00 0.00 0.00 48 1005.9
20260506021106 21 157 0.0 0.0 0.00 0.00 0.00 47 1005.8
20260506020554 21 157 0.0 0.0 0.00 0.00 0.00 47 1005.8
20260506020042 21 154 0.0 0.0 0.00 0.00 0.00 46 1005.8
20260506015529 21 154 0.0 0.0 0.00 0.00 0.00 46 1005.6
20260506015034 21 154 0.0 0.0 0.00 0.00 0.00 45 1005.6
20260506014537 22 154 0.0 0.0 0.00 0.00 0.00 45 1005.6
20260506014041 22 134 0.0 0.0 0.00 0.00 0.00 44 1005.5
20260506013549 22 134 0.0 0.0 0.00 0.00 0.00 44 1005.5
20260506013104 22 174 0.0 0.0 0.00 0.00 0.00 43 1005.5
20260506012600 22 176 0.0 0.0 0.00 0.00 0.00 43 1005.3
20260506012104 22 176 0.0 0.0 0.00 0.00 0.00 43 1005.3
20260506011502 22 176 0.0 0.0 0.00 0.00 0.00 42 1005.3
20260506011008 22 176 0.0 0.0 0.00 0.00 0.00 42 1005.2
20260506010556 22 172 0.0 0.0 0.00 0.00 0.00 42 1005.2
20260506010003 22 171 0.0 0.0 0.00 0.00 0.00 41 1005.2
20260506005505 22 171 0.0 0.0 0.00 0.00 0.00 41 1005.0
20260506005008 22 171 0.0 0.0 0.00 0.00 0.00 40 1005.0
20260506004510 22 171 0.0 0.0 0.00 0.00 0.00 40 1005.0
20260506004014 23 171 0.0 0.0 0.00 0.00 0.00 40 1004.9
20260506003604 23 171 0.0 0.0 0.00 0.00 0.00 39 1004.9
20260506003005 23 171 0.0 0.0 0.00 0.00 0.00 39 1004.9
20260506002507 23 168 0.0 0.0 0.00 0.00 0.00 39 1004.7
20260506002010 23 168 0.0 0.0 0.00 0.00 0.00 38 1004.7
20260506001607 23 168 0.0 0.0 0.00 0.00 0.00 38 1004.7
20260506001006 23 168 0.0 0.0 0.00 0.00 0.00 37 1004.5